| time (UTC) | temp F | wind direction | speed knots | gust knots | rain 1hr in | rain 24hr in | rain mn in | humidity % | barometer mb |
| 20260507163450 | 91 | 200 | 3.5 | 5.2 | 0.00 | 0.74 | 0.00 | 69 | 1014.6 |
| 20260507162450 | 92 | 184 | 1.7 | 2.6 | 0.00 | 0.74 | 0.00 | 65 | 1014.8 |
| 20260507161450 | 92 | 300 | 1.7 | 1.7 | 0.00 | 0.74 | 0.00 | 63 | 1014.7 |
| 20260507160450 | 92 | 357 | 4.3 | 6.1 | 0.00 | 0.74 | 0.00 | 63 | 1014.9 |
| 20260507155450 | 93 | 36 | 3.5 | 3.5 | 0.00 | 0.74 | 0.00 | 64 | 1014.6 |
| 20260507154450 | 93 | 48 | 1.7 | 2.6 | 0.00 | 0.74 | 0.00 | 65 | 1014.9 |
| 20260507153450 | 92 | 357 | 3.5 | 5.2 | 0.00 | 0.74 | 0.00 | 64 | 1014.9 |
| 20260507152450 | 91 | 34 | 2.6 | 4.3 | 0.00 | 0.74 | 0.00 | 66 | 1015.3 |
| 20260507151450 | 91 | 24 | 0.9 | 0.9 | 0.00 | 0.74 | 0.00 | 66 | 1015.2 |
| 20260507150450 | 91 | 0 | 0.0 | 0.9 | 0.00 | 0.74 | 0.00 | 67 | 1015.3 |
| 20260507145450 | 90 | 179 | 3.5 | 3.5 | 0.00 | 0.74 | 0.00 | 70 | 1015.4 |
| 20260507144450 | 90 | 107 | 1.7 | 1.7 | 0.00 | 0.74 | 0.00 | 72 | 1015.3 |
| 20260507143450 | 89 | 323 | 0.9 | 1.7 | 0.00 | 0.74 | 0.00 | 73 | 1015.4 |
| 20260507142450 | 87 | 201 | 1.7 | 1.7 | 0.00 | 0.74 | 0.00 | 75 | 1015.2 |
| 20260507141450 | 87 | 219 | 1.7 | 1.7 | 0.00 | 0.74 | 0.00 | 75 | 1015.3 |
| 20260507140450 | 88 | 0 | 0.0 | 0.9 | 0.00 | 0.74 | 0.00 | 73 | 1015.3 |
| 20260507135450 | 87 | 189 | 1.7 | 2.6 | 0.00 | 0.74 | 0.00 | 74 | 1015.3 |
| 20260507134450 | 87 | 0 | 0.0 | 0.9 | 0.00 | 0.74 | 0.00 | 75 | 1015.2 |
| 20260507133450 | 86 | 263 | 0.9 | 1.7 | 0.00 | 0.74 | 0.00 | 77 | 1014.9 |
| 20260507132450 | 85 | 208 | 1.7 | 3.5 | 0.00 | 0.74 | 0.00 | 77 | 1014.9 |
| 20260507131450 | 85 | 199 | 0.9 | 0.9 | 0.00 | 0.74 | 0.00 | 79 | 1014.7 |
| 20260507130450 | 84 | 0 | 0.0 | 0.9 | 0.00 | 0.74 | 0.00 | 79 | 1014.6 |
| 20260507125450 | 84 | 0 | 0.0 | 0.9 | 0.00 | 0.74 | 0.00 | 81 | 1014.7 |
| 20260507124450 | 83 | 31 | 0.9 | 0.9 | 0.00 | 0.74 | 0.00 | 83 | 1014.9 |
| 20260507123450 | 83 | 0 | 0.0 | 0.9 | 0.00 | 0.74 | 0.00 | 85 | 1014.7 |
| 20260507122450 | 82 | 7 | 0.9 | 0.9 | 0.00 | 0.74 | 0.00 | 87 | 1014.9 |
| 20260507121450 | 80 | 0 | 0.0 | 0.9 | 0.00 | 0.74 | 0.00 | 90 | 1015.0 |
| 20260507120450 | 79 | 0 | 0.0 | 0.9 | 0.00 | 0.74 | 0.00 | 96 | 1014.6 |
| 20260507115450 | 78 | 0 | 0.0 | 0.0 | 0.00 | 0.74 | 0.00 | 97 | 1014.4 |
| 20260507114450 | 77 | 0 | 0.0 | 0.0 | 0.00 | 0.74 | 0.00 | 98 | 1014.4 |
| 20260507113450 | 77 | 0 | 0.0 | 0.0 | 0.00 | 0.74 | 0.00 | 98 | 1014.2 |
| 20260507112450 | 77 | 93 | 0.9 | 1.7 | 0.00 | 0.74 | 0.00 | 98 | 1014.3 |
| 20260507111450 | 76 | 0 | 0.0 | 0.9 | 0.00 | 0.74 | 0.00 | 98 | 1013.9 |
| 20260507110450 | 77 | 0 | 0.0 | 0.0 | 0.00 | 0.74 | 0.00 | 98 | 1014.1 |
| 20260507105450 | 77 | 115 | 0.9 | 1.7 | 0.00 | 0.74 | 0.00 | 98 | 1013.9 |
| 20260507104450 | 77 | 0 | 0.0 | 0.9 | 0.00 | 0.74 | 0.00 | 98 | 1013.6 |
| 20260507103450 | 77 | 0 | 0.0 | 0.0 | 0.00 | 0.74 | 0.00 | 98 | 1013.6 |
| 20260507102450 | 77 | 0 | 0.0 | 0.0 | 0.00 | 0.74 | 0.00 | 97 | 1013.6 |
| 20260507101450 | 77 | 0 | 0.0 | 0.0 | 0.00 | 0.74 | 0.00 | 97 | 1013.9 |
| 20260507100450 | 77 | 94 | 0.9 | 0.9 | 0.00 | 0.74 | 0.00 | 97 | 1013.6 |
| 20260507095450 | 77 | 284 | 0.9 | 0.9 | 0.00 | 0.74 | 0.00 | 97 | 1013.5 |
| 20260507094450 | 78 | 0 | 0.0 | 0.9 | 0.00 | 0.74 | 0.00 | 96 | 1013.4 |
| 20260507093450 | 78 | 0 | 0.0 | 0.9 | 0.00 | 0.74 | 0.00 | 96 | 1013.4 |
| 20260507092450 | 78 | 0 | 0.0 | 0.9 | 0.00 | 0.74 | 0.00 | 96 | 1013.5 |
| 20260507091450 | 78 | 0 | 0.0 | 0.9 | 0.00 | 0.74 | 0.00 | 96 | 1013.4 |
| 20260507090450 | 78 | 269 | 0.9 | 1.7 | 0.00 | 0.74 | 0.00 | 96 | 1013.4 |
| 20260507085450 | 78 | 311 | 0.9 | 0.9 | 0.00 | 0.74 | 0.00 | 97 | 1013.5 |
| 20260507084450 | 78 | 326 | 0.9 | 0.9 | 0.00 | 0.74 | 0.00 | 97 | 1013.9 |
| 20260507083450 | 78 | 0 | 0.0 | 0.9 | 0.00 | 0.74 | 0.00 | 97 | 1013.5 |
| 20260507082450 | 78 | 157 | 0.9 | 0.9 | 0.00 | 0.74 | 0.00 | 96 | 1013.7 |
| 20260507081450 | 78 | 0 | 0.0 | 0.0 | 0.00 | 0.74 | 0.00 | 96 | 1013.5 |
| 20260507080450 | 78 | 260 | 0.9 | 0.9 | 0.00 | 0.74 | 0.00 | 96 | 1014.1 |
| 20260507075450 | 78 | 0 | 0.0 | 0.9 | 0.00 | 0.74 | 0.00 | 96 | 1013.8 |
| 20260507074450 | 78 | 0 | 0.0 | 0.9 | 0.00 | 0.74 | 0.00 | 95 | 1013.9 |
| 20260507073450 | 78 | 256 | 0.9 | 0.9 | 0.00 | 0.74 | 0.00 | 95 | 1014.0 |
| 20260507072450 | 78 | 0 | 0.0 | 0.9 | 0.00 | 0.74 | 0.00 | 95 | 1014.3 |
| 20260507071450 | 78 | 253 | 0.9 | 0.9 | 0.00 | 0.74 | 0.00 | 95 | 1014.3 |
| 20260507070450 | 78 | 0 | 0.0 | 0.9 | 0.00 | 0.74 | 0.00 | 95 | 1014.2 |
| 20260507065450 | 78 | 0 | 0.0 | 0.9 | 0.00 | 0.74 | 0.00 | 95 | 1014.6 |
| 20260507064450 | 78 | 0 | 0.0 | 1.7 | 0.00 | 0.74 | 0.00 | 95 | 1014.7 |
| 20260507063450 | 78 | 319 | 0.9 | 0.9 | 0.00 | 0.74 | 0.00 | 95 | 1014.8 |
| 20260507062450 | 78 | 247 | 0.9 | 0.9 | 0.00 | 0.74 | 0.00 | 95 | 1014.7 |
| 20260507061450 | 78 | 225 | 0.9 | 0.9 | 0.00 | 0.74 | 0.00 | 95 | 1014.9 |
| 20260507060450 | 78 | 0 | 0.0 | 0.9 | 0.00 | 0.74 | 0.00 | 94 | 1014.9 |
| 20260507055450 | 78 | 297 | 0.9 | 0.9 | 0.00 | 0.74 | 0.00 | 94 | 1015.0 |
| 20260507054450 | 78 | 311 | 0.9 | 1.7 | 0.00 | 0.74 | 0.00 | 95 | 1015.4 |
| 20260507053450 | 78 | 316 | 0.9 | 1.7 | 0.00 | 0.74 | 0.00 | 96 | 1015.2 |
| 20260507052450 | 78 | 0 | 0.0 | 0.9 | 0.00 | 0.74 | 0.00 | 96 | 1015.2 |
| 20260507051450 | 78 | 353 | 0.9 | 0.9 | 0.00 | 0.74 | 0.00 | 96 | 1015.5 |
| 20260507050450 | 79 | 0 | 0.0 | 0.9 | 0.00 | 0.74 | 0.00 | 96 | 1015.2 |
| 20260507045450 | 79 | 356 | 0.9 | 1.7 | 0.00 | 0.74 | 0.74 | 95 | 1015.3 |
| 20260507044450 | 79 | 0 | 0.0 | 0.9 | 0.00 | 0.74 | 0.74 | 94 | 1015.3 |
| 20260507043450 | 79 | 113 | 0.9 | 1.7 | 0.00 | 0.74 | 0.74 | 94 | 1015.3 |
| 20260507042450 | 79 | 321 | 0.9 | 0.9 | 0.00 | 0.74 | 0.74 | 94 | 1015.5 |
| 20260507041450 | 79 | 0 | 0.0 | 0.9 | 0.00 | 0.74 | 0.74 | 94 | 1015.3 |
| 20260507040450 | 79 | 0 | 0.0 | 0.0 | 0.00 | 0.74 | 0.74 | 93 | 1015.3 |
| 20260507035450 | 80 | 230 | 0.9 | 0.9 | 0.00 | 0.74 | 0.74 | 92 | 1015.4 |
| 20260507034450 | 80 | 294 | 1.7 | 1.7 | 0.00 | 0.74 | 0.74 | 92 | 1015.1 |
| 20260507033450 | 80 | 190 | 0.9 | 1.7 | 0.00 | 0.74 | 0.74 | 92 | 1014.8 |
| 20260507032450 | 80 | 202 | 0.9 | 1.7 | 0.00 | 0.74 | 0.74 | 92 | 1014.9 |
| 20260507031450 | 80 | 0 | 0.0 | 0.9 | 0.00 | 0.74 | 0.74 | 92 | 1014.8 |
| 20260507030450 | 80 | 0 | 0.0 | 0.0 | 0.00 | 0.74 | 0.74 | 91 | 1014.6 |
| 20260507025450 | 80 | 0 | 0.0 | 0.9 | 0.00 | 0.74 | 0.74 | 91 | 1014.8 |
| 20260507024450 | 80 | 338 | 1.7 | 2.6 | 0.00 | 0.74 | 0.74 | 92 | 1014.5 |
| 20260507023450 | 80 | 350 | 0.9 | 1.7 | 0.00 | 0.74 | 0.74 | 92 | 1014.3 |
| 20260507022450 | 81 | 0 | 0.0 | 0.9 | 0.00 | 0.74 | 0.74 | 91 | 1014.5 |
| 20260507021450 | 81 | 305 | 0.9 | 0.9 | 0.00 | 0.74 | 0.74 | 90 | 1014.4 |
| 20260507020450 | 81 | 229 | 0.9 | 1.7 | 0.00 | 0.74 | 0.74 | 90 | 1014.3 |
| 20260507015450 | 81 | 263 | 1.7 | 1.7 | 0.00 | 0.74 | 0.74 | 91 | 1014.1 |
| 20260507014450 | 81 | 295 | 0.9 | 0.9 | 0.00 | 0.74 | 0.74 | 90 | 1014.1 |
| 20260507013450 | 81 | 0 | 0.0 | 0.0 | 0.00 | 0.74 | 0.74 | 91 | 1013.9 |
| 20260507012450 | 81 | 252 | 0.9 | 0.9 | 0.00 | 0.74 | 0.74 | 91 | 1014.0 |
| 20260507011450 | 81 | 0 | 0.0 | 0.9 | 0.00 | 0.74 | 0.74 | 93 | 1013.7 |
| 20260507010450 | 81 | 0 | 0.0 | 0.0 | 0.00 | 0.74 | 0.74 | 94 | 1013.8 |
| 20260507005450 | 81 | 273 | 0.9 | 0.9 | 0.00 | 0.74 | 0.74 | 94 | 1013.9 |
| 20260507004450 | 81 | 0 | 0.0 | 0.0 | 0.00 | 0.74 | 0.74 | 93 | 1013.6 |
| 20260507003450 | 82 | 0 | 0.0 | 0.0 | 0.00 | 0.74 | 0.74 | 93 | 1013.4 |
| 20260507002450 | 81 | 0 | 0.0 | 0.9 | 0.00 | 0.74 | 0.74 | 92 | 1013.6 |
| 20260507001450 | 82 | 0 | 0.0 | 0.0 | 0.00 | 0.74 | 0.74 | 92 | 1013.6 |
| 20260507000450 | 82 | 0 | 0.0 | 0.9 | 0.00 | 0.74 | 0.74 | 93 | 1013.5 |
| 20260506235450 | 82 | 272 | 0.9 | 0.9 | 0.00 | 0.74 | 0.74 | 93 | 1013.6 |
| 20260506234450 | 82 | 229 | 0.9 | 0.9 | 0.00 | 0.74 | 0.74 | 94 | 1013.5 |
| 20260506233450 | 82 | 216 | 0.9 | 0.9 | 0.00 | 0.74 | 0.74 | 95 | 1013.3 |
| 20260506232450 | 82 | 0 | 0.0 | 0.9 | 0.00 | 0.74 | 0.74 | 95 | 1013.3 |
| 20260506231450 | 82 | 0 | 0.0 | 0.0 | 0.03 | 0.74 | 0.74 | 94 | 1013.3 |
| 20260506230450 | 82 | 0 | 0.0 | 0.9 | 0.18 | 0.74 | 0.74 | 94 | 1013.4 |
| 20260506225450 | 82 | 0 | 0.0 | 0.9 | 0.43 | 0.74 | 0.74 | 93 | 1012.8 |
| 20260506224450 | 82 | 243 | 1.7 | 1.7 | 0.66 | 0.74 | 0.74 | 93 | 1012.7 |
| 20260506223450 | 82 | 224 | 1.7 | 1.7 | 0.74 | 0.74 | 0.74 | 93 | 1012.8 |
| 20260506222450 | 81 | 278 | 0.9 | 1.7 | 0.74 | 0.77 | 0.74 | 93 | 1012.7 |
| 20260506221450 | 81 | 0 | 0.0 | 0.0 | 0.71 | 0.76 | 0.74 | 92 | 1012.8 |
| 20260506220450 | 82 | 30 | 1.7 | 2.6 | 0.55 | 0.62 | 0.60 | 91 | 1012.7 |
| 20260506215450 | 84 | 360 | 1.7 | 2.6 | 0.31 | 0.38 | 0.46 | 87 | 1012.6 |
| 20260506214450 | 86 | 263 | 1.7 | 1.7 | 0.08 | 0.15 | 0.10 | 84 | 1012.4 |
| 20260506213450 | 89 | 246 | 2.6 | 2.6 | 0.00 | 0.07 | 0.01 | 76 | 1012.5 |
| 20260506212450 | 89 | 250 | 3.5 | 3.5 | 0.00 | 0.07 | 0.00 | 79 | 1012.3 |
| 20260506211450 | 89 | 272 | 2.6 | 3.5 | 0.00 | 0.07 | 0.00 | 79 | 1012.2 |
| 20260506210450 | 89 | 243 | 1.7 | 1.7 | 0.00 | 0.07 | 0.00 | 78 | 1012.3 |
| 20260506205450 | 89 | 228 | 2.6 | 2.6 | 0.00 | 0.07 | 0.00 | 77 | 1012.5 |
| 20260506204450 | 89 | 201 | 2.6 | 2.6 | 0.00 | 0.07 | 0.00 | 77 | 1012.7 |
| 20260506203450 | 88 | 232 | 0.9 | 1.7 | 0.00 | 0.07 | 0.00 | 77 | 1012.5 |
| 20260506202450 | 89 | 196 | 1.7 | 1.7 | 0.00 | 0.07 | 0.00 | 77 | 1012.5 |
| 20260506201450 | 89 | 212 | 3.5 | 4.3 | 0.00 | 0.07 | 0.00 | 76 | 1012.9 |
| 20260506200450 | 89 | 280 | 1.7 | 2.6 | 0.00 | 0.07 | 0.00 | 75 | 1013.0 |
| 20260506195450 | 87 | 254 | 1.7 | 2.6 | 0.00 | 0.07 | 0.00 | 78 | 1012.9 |
| 20260506194450 | 87 | 224 | 2.6 | 2.6 | 0.00 | 0.07 | 0.00 | 80 | 1012.8 |
| 20260506193450 | 88 | 260 | 1.7 | 3.5 | 0.00 | 0.07 | 0.00 | 77 | 1012.9 |
| 20260506192450 | 89 | 243 | 2.6 | 2.6 | 0.00 | 0.07 | 0.00 | 74 | 1013.0 |
| 20260506191450 | 89 | 137 | 2.6 | 2.6 | 0.00 | 0.07 | 0.00 | 74 | 1013.0 |
| 20260506190450 | 89 | 141 | 0.9 | 2.6 | 0.00 | 0.07 | 0.00 | 74 | 1013.0 |
| 20260506185450 | 90 | 194 | 1.7 | 5.2 | 0.00 | 0.07 | 0.00 | 72 | 1013.0 |
| 20260506184450 | 90 | 202 | 4.3 | 4.3 | 0.00 | 0.07 | 0.00 | 73 | 1013.2 |
| 20260506183450 | 91 | 150 | 2.6 | 2.6 | 0.00 | 0.09 | 0.00 | 72 | 1013.4 |
| 20260506182450 | 91 | 110 | 3.5 | 3.5 | 0.00 | 0.12 | 0.00 | 71 | 1013.8 |
| 20260506181450 | 91 | 205 | 2.6 | 3.5 | 0.00 | 0.18 | 0.00 | 71 | 1014.0 |
| 20260506180450 | 91 | 242 | 1.7 | 4.3 | 0.00 | 0.31 | 0.00 | 72 | 1014.2 |
| 20260506175450 | 91 | 264 | 0.9 | 2.6 | 0.00 | 0.45 | 0.00 | 71 | 1014.1 |
| 20260506174450 | 91 | 192 | 2.6 | 3.5 | 0.00 | 0.45 | 0.00 | 72 | 1014.4 |
| 20260506173450 | 90 | 208 | 2.6 | 4.3 | 0.00 | 0.48 | 0.00 | 73 | 1014.4 |
| 20260506172450 | 90 | 223 | 2.6 | 2.6 | 0.00 | 0.48 | 0.00 | 73 | 1014.3 |
| 20260506171450 | 90 | 191 | 3.5 | 3.5 | 0.00 | 0.48 | 0.00 | 73 | 1014.3 |
| 20260506170450 | 90 | 186 | 4.3 | 4.3 | 0.00 | 0.48 | 0.00 | 73 | 1014.8 |
| 20260506165450 | 89 | 239 | 4.3 | 4.3 | 0.00 | 0.48 | 0.00 | 74 | 1014.8 |
| 20260506164450 | 90 | 192 | 5.2 | 6.1 | 0.00 | 0.48 | 0.00 | 73 | 1014.9 |